Погода в Нельмине-Носе

Россия / Ненецкий автономный округ     67°58′52″N   52°57′23″E
темп.,
°C
ветер,
м/с
пор.,
м/с
влажн.,
%
обл.,
%
осадки,
мм/ч
давл.,
гПа
погр.,
м
9 мая, вс
вс900:00−3зюз369796 0.0 101871
03:00−4ю339629 0.0 101925
06:00−3юв2295100 0.0 101932
09:00+1вюв36100100 0.0 101988
12:00+3вюв47100100 0.0 101899
15:00+3вюв512100100 0.1 1016158
18:00+3вюв61399100 0.0 1013162
21:00+4вюв61298100 1.1 1010160
10 мая, пн
пн1000:00+8ю71495100 1.9 1008171
03:00+4юз48100100 3.0 100896
06:00+3з411100100 5.6 1009256
09:00+2зюз511100100 8.8 1012348
12:00+2зюз61196100 0.1 1016525
15:00+4юз51082100 0.1 1018664
18:00+4юз48780 0.0 1020179
21:00+1юз48740 0.0 1021115
11 мая, вт
вт1100:00+1юз49790 0.0 1022133
03:00+1ююз41074100 0.0 1022142
06:00+4юз51282100 0.0 1022276
09:00+5ююз4894100 0.6 1021339
12:00+4ююз4996100 1.0 1021211
15:00+3зюз3797100 1.1 1022158
18:00+4зюз349894 0.0 102298
21:00+3юз3398100 0.0 102239
12 мая, ср
ср1200:00+4ююз3697100 0.3 1021116
03:00+4ю41099100 0.5 1018194
06:00+6ююз61499100 0.5 1015316
09:00+9зюз71696100 0.6 1014504
12:00+8з81694100 0.0 1016680
15:00+4зсз81394100 0.0 1019615
18:00+4сз61290100 0.0 1024637
21:00+1сз5109279 0.0 1027352
13 мая, чт
чт1300:00−1зсз39915 0.0 1029269
03:000зсз498192 0.0 1030319
06:00+2сз586326 0.0 1031714
09:00+4сз565397 0.0 10311071
12:00+6сз4448100 0.0 10311176
15:00+6ссз2346100 0.0 10301141
18:00+6св114799 0.0 1028843
21:00+4в466699 0.0 1027169